St. Augustine, FL

12:15 PM EDT on June 25, 2017 (GMT -0400)
Saint Augustine

Weather History for KSGJ - July, 2013

Change the Weather History Date:

Monday, July 8, 2013

  Actual Average Record
Temperature  
Mean Temperature 80 °F -  
Max Temperature 86 °F 86 °F 98 °F (1981)
Min Temperature 75 °F 71 °F 68 °F (1984)
Cooling Degree Days 16    
Growing Degree Days 30 (Base 50)    
Moisture  
Dew Point 74 °F    
Average Humidity 82    
Maximum Humidity 94    
Minimum Humidity 69    
Precipitation  
Precipitation 0.00 in - - ()
Sea Level Pressure  
Sea Level Pressure 30.17 in    
Wind  
Wind Speed 5 mph (ESE)    
Max Wind Speed 13 mph    
Max Gust Speed -    
Visibility 10 miles    
Events      
Averages and records for this station are not official NWS values.
T = Trace of Precipitation, MM = Missing Value Source: NWS Daily Summary

Daily Weather History Graph

Daily Weather History Graph

Search for Another Location

Airport or City:

Trip Planner

Search our weather history database for the weather conditions in past years. The results will help you decide how hot, cold, wet, or windy it might be!

Date:

Astronomy

Jul. 08, 2013 Rise Set
Actual Time 6:31 AM EDT 8:29 PM EDT
Civil Twilight 6:03 AM EDT 8:56 PM EDT
Nautical Twilight 5:31 AM EDT 9:29 PM EDT
Astronomical Twilight 4:56 AM EDT 10:04 PM EDT
Moon 6:52 AM EDT (7/8) 8:39 PM EDT (7/8)
Length of Visible Light 14h 52m
Length of Day
13h 58m
New Moon, 0% of the Moon is Illuminated
Jul 8
New Moon
Jul 15
First Quarter
Jul 22
Full
Jul 29
Last Quarter
Aug 6
New

Hourly Weather History & Observations

Time (EDT) Temp. Heat Index Dew Point Humidity Pressure Visibility Wind Dir Wind Speed Gust Speed Precip Events Conditions
12:58 AM 78.1 °F - 73.9 °F 87% 30.16 in 10.0 mi South 4.6 mph - N/A   Unknown
1:58 AM 77.0 °F - 73.9 °F 90% 30.15 in 10.0 mi South 3.5 mph - N/A   Unknown
2:58 AM 75.9 °F - 73.0 °F 91% 30.15 in 10.0 mi Calm Calm - N/A   Unknown
3:58 AM 75.9 °F - 73.0 °F 91% 30.15 in 10.0 mi Calm Calm - N/A   Unknown
4:58 AM 75.0 °F - 72.0 °F 90% 30.15 in 10.0 mi Calm Calm - N/A   Unknown
5:58 AM 75.0 °F - 72.0 °F 90% 30.16 in 10.0 mi Calm Calm - N/A   Unknown
6:58 AM 75.0 °F - 73.0 °F 94% 30.17 in 5.0 mi Calm Calm - N/A   Clear
7:58 AM 79.0 °F - 75.9 °F 90% 30.18 in 9.0 mi East 4.6 mph - N/A   Clear
8:58 AM 80.1 °F 85.1 °F 75.0 °F 85% 30.19 in 10.0 mi East 5.8 mph - N/A   Clear
9:58 AM 82.0 °F 88.6 °F 75.0 °F 79% 30.20 in 10.0 mi East 8.1 mph - N/A   Unknown
10:58 AM 82.9 °F 90.2 °F 75.0 °F 77% 30.21 in 8.0 mi East 8.1 mph - N/A   Scattered Clouds
11:58 AM 84.0 °F 91.9 °F 75.0 °F 74% 30.22 in 10.0 mi East 8.1 mph - N/A   Scattered Clouds
12:58 PM 84.0 °F 91.9 °F 75.0 °F 74% 30.20 in 10.0 mi East 10.4 mph - N/A   Scattered Clouds
1:58 PM 84.9 °F 93.3 °F 75.0 °F 72% 30.19 in 10.0 mi East 9.2 mph - N/A   Scattered Clouds
2:58 PM 86.0 °F 95.1 °F 75.0 °F 70% 30.19 in 10.0 mi East 11.5 mph - N/A   Scattered Clouds
3:58 PM 86.0 °F 95.1 °F 75.0 °F 70% 30.17 in 10.0 mi ESE 12.7 mph - N/A   Scattered Clouds
4:58 PM 84.9 °F 92.1 °F 73.9 °F 69% 30.15 in 10.0 mi ESE 9.2 mph - N/A   Scattered Clouds
5:58 PM 84.0 °F 91.9 °F 75.0 °F 74% 30.15 in 10.0 mi East 9.2 mph - N/A   Scattered Clouds
6:58 PM 84.0 °F 91.9 °F 75.0 °F 74% 30.14 in 10.0 mi East 9.2 mph - N/A   Scattered Clouds
7:58 PM 82.0 °F 88.6 °F 75.0 °F 79% 30.15 in 10.0 mi East 9.2 mph - N/A   Clear
8:58 PM 81.0 °F 86.7 °F 75.0 °F 82% 30.16 in 10.0 mi East 6.9 mph - N/A   Unknown
9:58 PM 79.0 °F - 75.0 °F 88% 30.17 in 10.0 mi SE 9.2 mph - N/A   Unknown
10:58 PM 79.0 °F - 75.9 °F 90% 30.19 in 10.0 mi SE 6.9 mph - N/A   Unknown
11:58 PM 79.0 °F - 75.0 °F 88% 30.20 in 10.0 mi SSE 4.6 mph - N/A   Unknown